Home > Weather > Wilhelmshaven > Past weeks

Flag for Germany Past Weather in Wilhelmshaven, Lower Saxony, Germany — Yesterday and Last 2 Weeks

Now
73 °F

Scattered clouds.


Feels Like: 76 °F
Forecast: 58 / 70 °F
Wind: 10 mph from Northeast

Location: Wittmundhaven

Current Time: May 31, 2016 at 6:14:09 PM

Latest Report: May 31, 2016 at 5:20 PM


Visibility: N/A

Pressure: 29.86 "Hg

Humidity: 69%

Dew Point: 63 °F

Location of WilhelmshavenLocation

Past Weather in Wilhelmshaven — Graph

°F

Wilhelmshaven Temperature Yesterday

Maximum temperature yesterday: 77 °F (at 5:20 PM)
Minimum temperature yesterday: 57 °F (at 2:20 AM)
Average temperature yesterday: 66 °F

High & Low Weather Summary for the Past Weeks

 TemperatureHumidityPressure
High77 °F (May 30, 5:20 PM)100% (May 20, 4:20 PM)30.07 "Hg (May 20, 4:20 PM)
Low43 °F (May 18, 3:20 AM)46% (May 18, 4:20 PM)29.65 "Hg (May 30, 3:20 PM)
Average57 °F83%29.89 "Hg
* Reported May 16 4:20 PM — May 31 4:20 PM, Wilhelmshaven, Weather by CustomWeather, © 2016

Note: Actual official high and low records may vary slightly from our data, if they occured in-between our weather recording intervals... More about our weather records

Advertising

Wilhelmshaven Weather History for the Previous 24 Hours

Scroll right to see more
 ConditionsComfort  
Time TempWeatherWind HumidityBarometerVisibility
4:20 PM
Tue, May 31
73 °FScattered clouds.8 mph65%29.86 "HgN/A
3:20 PM73 °FScattered clouds.8 mph69%29.86 "HgN/A
2:20 PM72 °FScattered clouds.7 mph73%29.86 "HgN/A
12:20 PM68 °FPartly sunny.7 mph78%29.86 "Hg5 mi
11:48 AM66 °FPartly sunny.7 mph83%29.83 "Hg4 mi
11:20 AM64 °FFog.7 mph94%29.83 "Hg3 mi
10:20 AM64 °FFog.8 mph88%29.83 "Hg3 mi
9:20 AM63 °FFog.9 mph94%29.80 "Hg2 mi
8:20 AM63 °FFog.8 mph94%29.80 "Hg2 mi
7:20 AM61 °FFog.8 mph94%29.77 "Hg3 mi
6:20 AM61 °FFog.6 mph94%29.77 "Hg3 mi
5:20 AM61 °FFog.8 mph94%29.77 "Hg3 mi
4:20 AM63 °FPartly cloudy.12 mph88%29.77 "HgN/A
3:20 AM63 °FPassing clouds.12 mph94%29.74 "HgN/A
2:20 AM63 °FPassing clouds.9 mph94%29.74 "HgN/A
1:20 AM64 °FPassing clouds.8 mph88%29.74 "HgN/A
12:20 AM66 °FPassing clouds.7 mph83%29.71 "HgN/A
11:20 PM
Mon, May 30
66 °FPartly cloudy.8 mph83%29.71 "HgN/A
10:20 PM68 °FBroken clouds.9 mph83%29.71 "HgN/A
9:20 PM68 °FBroken clouds.8 mph83%29.68 "HgN/A
8:20 PM68 °FBroken clouds.7 mph83%29.68 "Hg6 mi
7:20 PM75 °FBroken clouds.15 mph69%29.65 "HgN/A
6:20 PM77 °FScattered clouds.18 mph65%29.65 "HgN/A
Weather by CustomWeather, © 2016

See weather overviewHow to use our weather pages